Regional Weather Roundup
Issued by NWS Charleston, SC

Home | Current Version | Previous Version | Text Only | Print | Product List | Glossary On
Versions: 1 2 3 4 5 6 7 8 9 10 11 12 13 14 15 16 17 18 19 20 21 22 23 24 25 26 27 28 29 30 31 32 33 34 35 36 37 38 39 40 41 42 43 44 45 46 47 48 49 50
000
ASUS42 KCHS 261912
RWRCHS

Regional Weather Roundup
National Weather Service Charleston SC
300 PM EDT THU APR 26 2018

NOTE: "fair" indicates few or no clouds below 12,000 feet with no
significant weather and/or obstructions to visibility.

Not all stations are quality controlled. Use data with caution,
especially dewpoint observations.

SCZ027-030-031-034>040-042>050-262000-
...Southeast South Carolina...

CITY           SKY/WX    TMP DP  RH WIND       PRES   REMARKS
N Charleston   FAIR      77  57  50 S7G18     29.85S
Waterfront Prk NOT AVBL
Mount Pleasant FAIR      73  59  60 S9G18     29.86F
Johns Island   FAIR      75  57  53 S12G20    29.86F
Pinopolis        N/A     73  57  56 S7        29.78S
Moncks Corner  MOCLDY    75  52  43 SW8       29.84F
Summerville    MOCLDY    77  55  47 SW6       29.85F
Beaufort MCAS  FAIR      77  62  59 SE9       29.84F
Beaufort Arpt  FAIR      75  59  57 SW7       29.85F
Hilton Head Is PTSUNNY   72  57  60 S10G21    29.87F
Walterboro     FAIR      75  54  46 S6        29.85F
Allendale      FAIR      73  54  49 CALM      29.84F

...Southern Midlands and Pee Dee...

CITY           SKY/WX    TMP DP  RH WIND       PRES   REMARKS
Georgetown     FAIR      75  55  50 S13G20    29.87S
Kingstree      MOCLDY    75  54  46 S3        29.83F
Orangeburg     FAIR      73  54  51 S5        29.84F
Barnwell       FAIR      72  54  53 SW9       29.85S
Aiken          FAIR      70  54  56 SW6       29.87F
Manning        FAIR      72  52  49 W3        29.84F
Columbia       PTSUNNY   74  55  51 S8        29.82F
Sumter         CLOUDY    74  55  50 S10       29.81F
Florence       FAIR      77  56  48 S8        29.83F
Myrtle Beach   FAIR      71  62  73 SE15      29.88S
N Myrtle Beach FAIR      70  62  76 S9        29.87S

$$

GAZ063-065-086>088-099>101-113>116-118-119-134>141-150-262000-
...Southeast Georgia...

CITY           SKY/WX    TMP DP  RH WIND       PRES   REMARKS
Savannah Arpt  PTSUNNY   79  55  43 SW13      29.84F
Hunter AAF     FAIR      77  60  54 SE14      29.81F
Fort Stewart   FAIR      79  55  42 SW13      29.82F
Statesboro     FAIR      75  48  37 W5        29.85F
Sylvania       FAIR      74  57  55 W6        29.86S
Claxton        FAIR      77  56  49 W3        29.85F

...CSRA, Central and far Southeast Georgia...

CITY           SKY/WX    TMP DP  RH WIND       PRES   REMARKS
Thomson        PTSUNNY   70  54  56 NW7       29.91S
Augusta-Bush   FAIR      72  53  51 S8        29.84F
Augusta-Daniel FAIR      73  55  53 SW8       29.85S
Swainsboro     FAIR      72  54  53 W7        29.88S
Vidalia        FAIR      73  50  43 SW5       29.86S
Eastman        FAIR      74  44  34 NW6       29.89F
Hazlehurst     FAIR      77  50  38 SW7       29.85F
Alma           FAIR      79  55  43 W8        29.84F
Waycross       FAIR      81  48  31 SW9G16    29.84F
Jesup          FAIR      81  52  36 CALM      29.84
Baxley         FAIR      75  54  46 SW5       29.85F
Brunswick      CLOUDY    75  59  57 SE10      29.86F
Saint Simons   FAIR      73  61  65 SE13      29.86F

$$

SCZ027-028-034-036>038-045-046-048>050-GAZ119-141-262000-
...Lake and Supplemental Coastal Observations...

STATION/POSITION TIME  TEMP    WIND        PRES    WAVE   SWELL
                       AIR SEA DIR/SP/G            HT/PER HT/PER/DIR
                 (UTC) (F)     (DEG/KT/KT) (MB)    (FT/S) (FT/S/D)
Winyah Bay       1745   72     190/ 12     1011.0
Lake Murray      1820   71      CALM  /  2 1009.8
ACE Basin NERRS  1745   74     350/  4       N/A
Fort Pulaski     1842   72 67  190/  6/ 12 1011.4F
Sapelo Island    1800   76     170/ 14     1011.0

$$

ANZ835-935-AMZ111-154-330-350-352-354-370-450-454-472-262000-
...C-MAN and Buoy Observations...

STATION/POSITION TIME  TEMP    WIND        PRES    WAVE   SWELL
                       AIR SEA DIR/SP/G            HT/PER HT/PER/DIR
                 (UTC) (F)     (DEG/KT/KT) (MB)    (FT/S) (FT/S/D)
Buoy 41004       1850      70  210/ 10/ 12 1011.8F   3/ 9   3/110/ 9
Buoy 41008       1850   68 68  150/ 10/ 12 1011.1F   3/ 9   3/ 70/ 9
Folly Beach CMAN 1800   69     190/ 11/ 13 1012.3F
Capers Nearshore 1808   67 67  210/ 12/ 16 1012.2F
Fripp Nearshore  1808   66 66  180/ 10/ 14 1011.4F


STATION/POSITION TIME  TEMP    WIND        PRES    WAVE   SWELL
                       AIR SEA DIR/SP/G            HT/PER HT/PER/DIR
                 (UTC) (F)     (DEG/KT/KT) (MB)    (FT/S) (FT/S/D)
5E St. Marys GA  1900      70                N/A     3/ 8
Frying Pan Buoy  1850   72 71  200/ 10/ 12 1011.9F   4/ 9   3/110/ 9
Buoy 41025       1850   71 71  170/  6/ 10 1012.8F   6/10   7/100/10
Cape Lookout NC  1800          130/  8/  9 1012.8R
Buoy 41002       1850   73 74  220/ 12/ 16 1013.6F   6/ 9   5/110/ 9
Buoy 41010       1850   75 76  220/ 12/ 16 1013.3F   5/ 8   5/100/ 8
St Augustine FL  1900   69 71  130/ 12/ 13 1011.8F


$$




USA.gov is the U.S. government's official web portal to all federal, state and local government web resources and services.